SCP
-0 -0 -0 -0 -0 -0 -0 -0 -0 -0 -0 -0 -0 -0 -0 -0 -0 -0 0 0 0 -0 -0 0 0 0 0 0 0 0 -0 0 0 0 0 0 0 0 0 0 0 -0 0 -0 0
-0 -0 -0 -0 -0 -0 -0 -0 -0 -0 -0 -0 -0 -0 -0 -0 -0 -0 0 0 -0 -0 0 0 0 0 0 0 0 0 0 0 0 0 0 0 0 0 0 0 0 -0 0 -0 -0
-0 -0 -0 -0 -0 -0 -0 -0 -0 -0 -0 -0 -0 -0 -0 0 -0 -0 -0 0 -0 0 0 0 0 0 0 -0 -0 0 0 0 0 0 0 0 1 1 0 0 0 0 -0 0 0
-0 -0 -0 -0 -0 -0 -0 -0 -0 -0 -0 -0 -0 -0 -0 0 -0 0 -0 -0 -0 0 0 0 0 0 -0 -0 0 0 -0 0 0 0 0 0 0 0 0 0 0 0 -0 -0 0
-0 -0 -0 -0 -0 0 0 0 -0 0 0 -0 -0 -0 0 0 0 0 0 0 0 0 0 0 0 0 -0 -0 0 0 0 0 0 0 0 0 0 0 0 0 0 0 0 0 0
-0 -0 -0 -0 -0 -0 0 0 0 0 0 0 0 0 0 0 0 -0 0 0 0 0 0 0 0 0 0 -0 -0 -0 0 0 0 0 0 0 0 0 0 0 0 0 0 0 -0
0 0 0 -0 -0 -0 -0 0 0 0 0 0 0 -0 0 0 0 0 0 0 0 0 0 0 0 0 -0 -0 0 0 0 0 0 0 0 0 0 0 0 0 0 0 0 0 0
-0 0 0 0 -0 -0 -0 -0 0 0 0 0 -0 -0 0 0 0 0 0 0 0 0 0 0 0 0 0 0 0 -0 0 0 0 0 0 0 0 0 0 0 0 0 0 0 -0
-0 -0 -0 0 0 0 0 -0 -0 0 0 0 0 0 0 0 0 0 0 0 0 0 0 0 0 0 0 -0 -0 0 0 0 -0 -0 0 -0 0 0 0 0 0 0 0 0 -0
-0 -0 -0 -0 -0 0 0 0 0 0 0 0 0 0 0 0 0 0 0 0 0 0 0 0 0 0 0 -0 -0 -0 0 0 0 -0 -0 0 0 -0 -0 0 0 0 0 -0 -0
-0 -0 -0 -0 -0 -0 0 0 0 0 0 0 0 0 0 0 0 0 0 0 0 0 0 0 -0 -0 -0 -0 -0 0 -0 0 -0 0 0 -0 0 0 -0 0 0 0 0 -0 -0
-0 -0 -0 -0 -0 -0 0 0 0 0 0 0 0 0 0 0 0 0 0 0 0 0 0 0 -0 -0 -0 -0 -0 0 0 0 0 -0 0 0 0 0 0 0 0 0 0 -0 0
-0 -0 -0 -0 -0 0 0 0 0 0 0 0 0 0 0 0 0 0 0 0 0 0 0 0 0 -0 -0 -0 -0 -0 -0 0 0 0 0 -0 -0 0 0 0 0 0 0 -0 -0
-0 -0 -0 -0 0 0 0 0 0 -0 0 0 0 0 0 0 0 0 0 0 0 0 0 0 -0 0 -0 -0 -0 -0 -0 0 0 0 0 0 0 0 0 0 0 0 0 -0 -0
-0 -0 -0 0 0 0 0 0 0 0 0 0 0 0 0 0 0 0 0 0 0 0 0 0 0 0 -0 -0 -0 -0 -0 -0 -0 0 0 0 0 -0 0 0 0 0 0 -0 -0
-0 -0 -0 0 0 0 0 0 0 0 0 0 0 -0 0 0 0 0 0 0 0 0 0 0 0 0 0 0 0 -0 0 0 0 0 0 0 0 0 0 -0 0 0 0 -0 -0
-0 -0 0 0 0 0 0 0 0 0 0 0 0 0 -0 0 0 0 0 0 0 0 0 0 0 0 0 0 0 0 0 0 0 0 0 0 0 -0 0 0 0 -0 0 0 -0
-0 0 0 0 -0 0 0 0 0 0 0 0 0 -0 0 0 0 0 0 0 0 0 0 0 0 0 0 0 0 0 0 0 0 0 0 0 0 0 0 -0 0 0 0 0 0
-0 0 0 0 0 -0 0 0 0 0 0 0 0 0 0 0 0 0 0 0 0 0 0 0 0 0 0 0 0 0 0 0 0 0 0 0 0 0 0 -0 0 0 0 0 -0
-0 -0 0 0 -0 0 0 0 0 0 0 0 0 0 0 0 0 0 0 0 0 0 0 0 0 0 0 0 0 0 0 0 0 0 0 0 0 0 0 -0 -0 0 -0 -0 0
-0 0 -0 0 -0 0 0 0 0 0 0 0 0 0 0 0 0 0 0 0 0 0 0 0 0 0 0 0 0 0 0 0 0 0 0 0 0 0 0 -0 -0 0 0 0 0
0 0 -0 0 0 0 0 0 0 0 0 0 0 0 0 -0 0 0 0 0 0 0 0 0 0 0 0 0 0 0 0 0 0 0 0 0 0 0 0 0 0 0 0 0 0
0 0 -0 0 0 0 0 0 0 0 0 0 0 0 -0 -0 0 0 0 0 0 0 0 0 0 0 0 0 0 0 0 0 0 0 0 0 0 0 0 0 0 0 0 0 0
0 0 0 0 0 0 0 0 0 0 0 0 0 0 0 0 0 -0 -0 -0 0 0 0 0 0 0 0 0 0 0 0 0 -0 0 0 0 0 0 0 0 0 0 0 0 -0
0 0 0 0 0 0 0 0 0 0 0 0 0 0 0 0 0 0 -0 -0 0 0 0 0 0 0 0 0 0 0 0 0 0 0 0 0 0 0 0 0 0 0 0 0 -0
0 0 0 0 0 0 0 0 0 0 0 0 0 0 0 0 0 0 0 -0 -0 0 0 0 0 0 0 0 0 0 0 0 0 0 0 0 0 0 0 0 0 0 0 0 0
0 0 0 0 0 0 0 0 0 0 0 0 -0 -0 0 -0 0 -0 0 0 0 0 0 -0 0 0 0 0 0 0 0 0 0 0 0 0 0 0 0 0 0 0 1 1 0
Wind_Speed_500mb
21 21 21 22 22 22 22 24 24 25 26 24 23 21 20 21 24 31 32 14 10 6 15 16 14 8 16 14 18 9 8 5 9 11 12 31 10 12 11 27 8 4 30 59 66
23 23 23 24 24 23 23 23 25 25 25 25 24 24 22 22 25 35 30 20 22 18 18 23 22 16 12 9 13 8 8 12 11 11 13 35 26 27 14 12 10 18 41 65 62
24 24 26 26 26 26 24 24 25 26 25 25 25 24 23 21 21 31 26 23 24 25 21 21 21 11 9 0 3 7 10 8 9 21 37 29 34 18 34 4 18 55 77 64 59
26 26 27 28 28 28 27 26 26 27 27 24 26 23 22 14 7 3 10 12 19 16 18 21 28 17 6 9 12 7 9 9 18 27 19 15 33 22 6 11 33 66 73 66 56
27 28 29 30 31 31 30 28 27 26 28 25 25 24 20 11 28 14 16 7 5 6 14 17 14 12 12 3 4 8 3 22 29 28 25 31 29 21 16 37 41 55 61 60 53
29 29 30 30 32 32 31 29 28 26 27 25 25 24 19 8 8 10 9 7 8 6 10 11 10 20 6 4 4 17 17 20 28 41 22 26 29 15 25 52 55 55 60 56 51
31 31 31 32 32 33 32 31 30 26 25 25 25 26 29 33 14 17 12 6 3 7 10 11 16 23 22 6 16 15 10 11 8 12 7 25 8 9 51 54 60 56 53 53 50
30 31 32 33 33 33 32 31 29 26 23 21 24 26 22 13 27 28 19 17 9 8 10 15 21 16 4 13 11 7 9 5 6 2 2 11 3 22 50 53 48 56 57 56 54
30 30 31 32 34 33 29 27 25 21 19 19 20 15 26 16 24 25 28 26 15 16 18 19 13 3 6 7 8 11 5 5 8 4 5 8 8 22 53 51 54 60 65 66 60
31 30 29 30 31 30 24 19 10 7 5 12 21 13 24 3 4 21 26 30 25 18 16 6 9 7 8 8 6 8 5 9 5 12 10 7 12 30 56 56 57 58 61 70 68
32 31 27 25 27 24 24 6 13 3 30 17 17 25 37 20 20 11 20 22 23 8 5 4 7 12 22 12 11 4 9 9 12 13 3 13 18 31 52 51 43 45 55 65 70
33 31 27 22 19 14 17 15 26 23 24 29 40 51 57 53 20 7 8 16 11 11 6 8 13 15 20 13 11 9 9 11 6 9 1 9 10 16 20 44 52 51 60 66 72
36 32 26 18 14 5 6 20 22 21 8 23 25 32 44 24 22 23 7 13 6 8 9 14 12 8 3 6 2 7 9 8 5 8 2 6 9 13 15 32 39 41 50 70 73
36 31 26 12 5 4 3 11 13 19 10 14 9 9 23 26 11 35 39 11 2 16 11 12 8 13 8 8 12 13 8 16 14 10 14 9 12 11 14 18 21 46 47 71 72
35 29 22 11 9 2 6 10 19 8 7 6 6 4 13 19 10 16 37 23 13 11 11 18 4 8 7 14 10 23 5 22 28 12 9 1 5 16 1 16 19 38 66 63 80
33 25 17 12 7 4 10 19 6 10 4 16 3 8 2 4 4 4 9 18 2 7 2 15 8 4 14 4 13 10 8 11 9 10 3 13 19 13 11 32 12 33 62 60 64
26 19 12 8 1 1 8 6 10 6 10 18 12 17 1 10 10 1 9 3 8 4 6 11 12 8 9 11 3 6 12 6 5 2 10 9 13 27 11 16 22 33 49 55 63
17 14 12 2 5 1 9 10 7 5 9 9 10 13 11 12 4 9 11 6 2 8 6 9 17 13 8 15 15 11 17 11 9 7 9 13 12 14 10 24 28 33 50 55 52
9 16 17 8 6 1 3 8 10 8 7 16 16 15 15 13 3 14 3 9 14 20 19 13 14 13 8 8 13 1 7 10 12 7 4 5 14 18 3 15 11 19 29 44 58
13 12 18 15 14 5 9 6 6 10 10 6 6 6 13 15 17 14 12 3 9 19 4 15 8 13 13 9 4 13 10 3 5 6 9 8 8 11 12 18 17 16 39 61 59
10 7 6 8 6 7 6 11 12 28 17 6 5 6 4 5 4 9 8 12 10 15 12 11 10 16 4 9 13 6 2 5 10 9 12 7 13 17 21 27 27 28 50 56 67
9 6 3 1 11 4 1 7 14 17 11 12 7 4 4 1 5 12 11 8 40 22 13 8 10 12 27 9 8 11 16 14 10 11 6 6 14 11 24 14 15 29 41 50 57
7 6 5 5 5 8 13 11 7 8 13 13 13 11 5 8 9 7 10 26 39 19 12 6 3 3 19 9 6 9 10 9 7 7 16 12 14 9 12 11 18 30 24 47 55
6 5 3 4 7 3 9 12 15 24 6 9 6 11 12 13 9 6 9 10 40 15 45 3 3 8 14 16 8 10 8 9 11 7 8 13 19 14 17 15 17 28 28 36 58
11 4 5 6 6 8 3 10 10 14 15 35 12 8 5 8 14 8 7 11 23 13 24 8 5 9 13 12 9 11 10 12 12 12 10 11 18 20 23 27 41 52 37 52 65
7 8 9 7 17 10 9 10 12 13 6 11 9 19 4 2 6 13 4 3 8 13 12 11 8 10 12 7 11 12 12 12 8 8 10 7 14 11 12 14 23 56 62 65 71
13 8 6 6 9 4 2 9 7 14 9 9 10 4 10 6 37 43 38 30 20 6 7 2 3 7 11 7 12 5 14 10 9 16 5 7 11 16 15 15 39 53 59 64 79
Wind_Direction_500mb
347 345 344 342 342 342 341 342 341 341 342 341 336 324 303 282 269 271 271 274 296 331 331 330 324 297 245 241 202 185 65 205 142 164 144 154 135 170 99 129 108 128 157 162 155
339 337 336 335 335 334 333 334 334 335 337 336 336 331 320 298 275 260 264 276 279 286 313 319 337 331 217 219 176 146 125 209 188 147 149 167 157 137 126 126 67 112 149 152 159
333 332 329 327 327 326 326 327 327 327 331 333 331 332 326 316 303 272 279 273 268 269 297 312 342 318 246 164 70 147 169 171 135 156 150 146 135 126 139 199 203 153 152 160 167
331 327 325 323 322 321 321 321 321 320 322 326 325 330 326 314 226 119 33 244 245 265 292 325 340 346 36 37 21 101 91 134 143 153 140 122 133 134 110 197 171 160 162 166 176
326 324 323 321 319 316 317 315 314 313 313 319 320 325 329 293 253 273 333 4 263 258 292 321 5 347 354 63 58 34 42 92 127 152 127 130 145 142 131 147 152 158 170 178 190
323 321 320 318 316 315 313 310 307 305 305 309 312 315 311 286 263 272 253 332 337 268 286 303 337 343 306 7 1 75 95 99 112 94 77 107 137 118 150 156 159 167 177 185 192
320 320 318 317 316 314 313 309 304 300 295 299 304 305 290 253 254 248 222 224 15 344 285 294 335 335 320 136 147 111 65 35 32 115 94 113 56 135 158 162 166 177 183 192 199
317 315 316 316 316 314 314 310 302 296 286 286 293 300 270 259 231 226 232 242 239 263 269 297 323 326 314 118 51 77 70 356 281 214 1 120 47 140 166 167 180 186 196 202 204
318 314 313 314 314 317 324 317 304 289 279 278 282 288 270 264 244 238 229 243 260 261 263 285 298 267 116 79 46 358 233 230 237 306 139 107 148 166 180 184 191 198 201 210 214
320 317 313 315 315 323 348 331 351 335 347 279 261 291 258 308 268 230 235 245 253 270 289 239 135 77 30 76 224 196 192 266 248 216 150 116 162 170 187 196 205 204 212 210 213
324 321 316 314 317 330 16 38 4 308 322 260 264 256 281 274 304 202 235 240 232 260 180 20 119 172 222 199 219 196 172 226 271 169 147 188 156 177 193 209 216 210 211 212 221
328 322 320 315 309 327 24 55 24 314 295 282 264 259 259 275 298 259 191 190 161 193 133 11 234 218 158 203 233 210 190 244 308 109 141 177 206 205 194 210 213 216 218 222 220
332 327 322 321 303 297 44 14 13 352 278 291 262 255 249 244 228 253 203 176 146 151 180 189 216 105 187 126 277 262 231 211 197 137 41 110 282 219 234 230 226 224 230 229 222
334 328 325 331 300 314 122 2 337 337 41 281 277 288 194 196 251 241 249 244 84 196 175 242 222 232 275 269 141 285 215 252 181 152 221 155 267 265 206 233 230 227 223 232 224
332 330 325 325 298 332 276 310 313 317 23 326 281 310 187 181 147 213 227 208 175 188 109 242 255 196 170 228 152 250 232 252 197 151 109 195 67 272 331 251 223 222 226 222 220
330 331 322 320 321 249 283 302 335 39 306 340 1 342 129 239 268 108 116 201 235 170 17 244 288 179 216 241 178 265 292 13 37 120 115 228 179 280 195 228 216 226 223 223 217
337 337 332 325 162 78 305 350 42 111 330 342 320 343 60 346 346 178 274 72 163 125 307 310 256 250 215 300 93 114 62 312 5 93 207 224 139 237 258 227 202 215 219 217 221
357 17 28 105 180 123 6 53 69 273 283 296 311 331 76 8 355 316 148 245 189 108 107 187 300 182 195 183 212 202 162 160 229 220 246 156 228 248 191 254 226 238 226 216 220
37 46 45 70 130 100 59 66 211 220 276 325 335 50 353 342 352 8 260 210 220 172 178 166 266 288 183 163 119 282 207 202 106 10 80 242 293 307 228 245 214 200 203 216 223
34 57 50 69 96 57 73 232 239 224 335 323 345 51 14 331 10 7 356 228 327 196 262 227 254 215 257 150 239 159 178 319 0 180 235 280 272 237 271 222 207 199 216 230 228
25 72 51 71 4 16 107 235 267 275 239 229 300 54 18 1 284 298 0 319 10 320 189 154 139 275 47 177 226 292 222 79 132 137 178 209 257 217 225 233 194 205 207 207 213
40 49 179 155 24 31 288 219 306 296 2 249 209 151 136 39 351 0 21 278 348 321 331 226 173 211 223 238 203 167 209 158 134 259 187 172 268 230 222 244 174 212 201 211 217
53 60 175 240 54 333 302 290 269 306 336 344 4 40 340 35 34 37 347 305 347 353 350 306 291 333 321 352 345 195 191 159 136 78 196 159 256 315 295 190 191 196 203 199 208
33 34 53 197 75 29 327 317 334 336 36 46 44 61 42 29 350 314 327 316 328 332 356 143 131 174 214 213 177 161 211 172 125 113 198 213 245 255 257 218 193 193 214 205 194
37 47 30 314 342 349 314 344 339 3 356 19 27 74 36 9 339 333 294 313 318 5 356 52 43 340 295 264 272 184 206 168 180 191 166 260 201 240 240 196 207 196 184 186 183
53 22 355 310 309 334 358 9 13 326 9 337 16 323 167 159 245 277 280 267 238 327 351 350 308 9 299 339 240 269 226 215 189 164 247 255 265 257 316 159 174 191 185 186 191
43 15 331 331 343 39 320 320 330 339 306 342 316 333 333 299 310 271 267 261 242 258 283 127 38 30 284 329 256 287 228 184 99 40 333 19 281 315 272 201 195 196 195 195 196
Wind_Speed_850mb
21 21 21 22 22 22 22 24 24 25 26 24 23 21 20 21 24 31 32 14 10 6 15 16 14 8 16 14 18 9 8 5 9 11 12 31 10 12 11 27 8 4 30 59 66
23 23 23 24 24 23 23 23 25 25 25 25 24 24 22 22 25 35 30 20 22 18 18 23 22 16 12 9 13 8 8 12 11 11 13 35 26 27 14 12 10 18 41 65 62
24 24 26 26 26 26 24 24 25 26 25 25 25 24 23 21 21 31 26 23 24 25 21 21 21 11 9 0 3 7 10 8 9 21 37 29 34 18 34 4 18 55 77 64 59
26 26 27 28 28 28 27 26 26 27 27 24 26 23 22 14 7 3 10 12 19 16 18 21 28 17 6 9 12 7 9 9 18 27 19 15 33 22 6 11 33 66 73 66 56
27 28 29 30 31 31 30 28 27 26 28 25 25 24 20 11 28 14 16 7 5 6 14 17 14 12 12 3 4 8 3 22 29 28 25 31 29 21 16 37 41 55 61 60 53
29 29 30 30 32 32 31 29 28 26 27 25 25 24 19 8 8 10 9 7 8 6 10 11 10 20 6 4 4 17 17 20 28 41 22 26 29 15 25 52 55 55 60 56 51
31 31 31 32 32 33 32 31 30 26 25 25 25 26 29 33 14 17 12 6 3 7 10 11 16 23 22 6 16 15 10 11 8 12 7 25 8 9 51 54 60 56 53 53 50
30 31 32 33 33 33 32 31 29 26 23 21 24 26 22 13 27 28 19 17 9 8 10 15 21 16 4 13 11 7 9 5 6 2 2 11 3 22 50 53 48 56 57 56 54
30 30 31 32 34 33 29 27 25 21 19 19 20 15 26 16 24 25 28 26 15 16 18 19 13 3 6 7 8 11 5 5 8 4 5 8 8 22 53 51 54 60 65 66 60
31 30 29 30 31 30 24 19 10 7 5 12 21 13 24 3 4 21 26 30 25 18 16 6 9 7 8 8 6 8 5 9 5 12 10 7 12 30 56 56 57 58 61 70 68
32 31 27 25 27 24 24 6 13 3 30 17 17 25 37 20 20 11 20 22 23 8 5 4 7 12 22 12 11 4 9 9 12 13 3 13 18 31 52 51 43 45 55 65 70
33 31 27 22 19 14 17 15 26 23 24 29 40 51 57 53 20 7 8 16 11 11 6 8 13 15 20 13 11 9 9 11 6 9 1 9 10 16 20 44 52 51 60 66 72
36 32 26 18 14 5 6 20 22 21 8 23 25 32 44 24 22 23 7 13 6 8 9 14 12 8 3 6 2 7 9 8 5 8 2 6 9 13 15 32 39 41 50 70 73
36 31 26 12 5 4 3 11 13 19 10 14 9 9 23 26 11 35 39 11 2 16 11 12 8 13 8 8 12 13 8 16 14 10 14 9 12 11 14 18 21 46 47 71 72
35 29 22 11 9 2 6 10 19 8 7 6 6 4 13 19 10 16 37 23 13 11 11 18 4 8 7 14 10 23 5 22 28 12 9 1 5 16 1 16 19 38 66 63 80
33 25 17 12 7 4 10 19 6 10 4 16 3 8 2 4 4 4 9 18 2 7 2 15 8 4 14 4 13 10 8 11 9 10 3 13 19 13 11 32 12 33 62 60 64
26 19 12 8 1 1 8 6 10 6 10 18 12 17 1 10 10 1 9 3 8 4 6 11 12 8 9 11 3 6 12 6 5 2 10 9 13 27 11 16 22 33 49 55 63
17 14 12 2 5 1 9 10 7 5 9 9 10 13 11 12 4 9 11 6 2 8 6 9 17 13 8 15 15 11 17 11 9 7 9 13 12 14 10 24 28 33 50 55 52
9 16 17 8 6 1 3 8 10 8 7 16 16 15 15 13 3 14 3 9 14 20 19 13 14 13 8 8 13 1 7 10 12 7 4 5 14 18 3 15 11 19 29 44 58
13 12 18 15 14 5 9 6 6 10 10 6 6 6 13 15 17 14 12 3 9 19 4 15 8 13 13 9 4 13 10 3 5 6 9 8 8 11 12 18 17 16 39 61 59
10 7 6 8 6 7 6 11 12 28 17 6 5 6 4 5 4 9 8 12 10 15 12 11 10 16 4 9 13 6 2 5 10 9 12 7 13 17 21 27 27 28 50 56 67
9 6 3 1 11 4 1 7 14 17 11 12 7 4 4 1 5 12 11 8 40 22 13 8 10 12 27 9 8 11 16 14 10 11 6 6 14 11 24 14 15 29 41 50 57
7 6 5 5 5 8 13 11 7 8 13 13 13 11 5 8 9 7 10 26 39 19 12 6 3 3 19 9 6 9 10 9 7 7 16 12 14 9 12 11 18 30 24 47 55
6 5 3 4 7 3 9 12 15 24 6 9 6 11 12 13 9 6 9 10 40 15 45 3 3 8 14 16 8 10 8 9 11 7 8 13 19 14 17 15 17 28 28 36 58
11 4 5 6 6 8 3 10 10 14 15 35 12 8 5 8 14 8 7 11 23 13 24 8 5 9 13 12 9 11 10 12 12 12 10 11 18 20 23 27 41 52 37 52 65
7 8 9 7 17 10 9 10 12 13 6 11 9 19 4 2 6 13 4 3 8 13 12 11 8 10 12 7 11 12 12 12 8 8 10 7 14 11 12 14 23 56 62 65 71
13 8 6 6 9 4 2 9 7 14 9 9 10 4 10 6 37 43 38 30 20 6 7 2 3 7 11 7 12 5 14 10 9 16 5 7 11 16 15 15 39 53 59 64 79
Wind_Direction_850mb
347 345 344 342 342 342 341 342 341 341 342 341 336 324 303 282 269 271 271 274 296 331 331 330 324 297 245 241 202 185 65 205 142 164 144 154 135 170 99 129 108 128 157 162 155
339 337 336 335 335 334 333 334 334 335 337 336 336 331 320 298 275 260 264 276 279 286 313 319 337 331 217 219 176 146 125 209 188 147 149 167 157 137 126 126 67 112 149 152 159
333 332 329 327 327 326 326 327 327 327 331 333 331 332 326 316 303 272 279 273 268 269 297 312 342 318 246 164 70 147 169 171 135 156 150 146 135 126 139 199 203 153 152 160 167
331 327 325 323 322 321 321 321 321 320 322 326 325 330 326 314 226 119 33 244 245 265 292 325 340 346 36 37 21 101 91 134 143 153 140 122 133 134 110 197 171 160 162 166 176
326 324 323 321 319 316 317 315 314 313 313 319 320 325 329 293 253 273 333 4 263 258 292 321 5 347 354 63 58 34 42 92 127 152 127 130 145 142 131 147 152 158 170 178 190
323 321 320 318 316 315 313 310 307 305 305 309 312 315 311 286 263 272 253 332 337 268 286 303 337 343 306 7 1 75 95 99 112 94 77 107 137 118 150 156 159 167 177 185 192
320 320 318 317 316 314 313 309 304 300 295 299 304 305 290 253 254 248 222 224 15 344 285 294 335 335 320 136 147 111 65 35 32 115 94 113 56 135 158 162 166 177 183 192 199
317 315 316 316 316 314 314 310 302 296 286 286 293 300 270 259 231 226 232 242 239 263 269 297 323 326 314 118 51 77 70 356 281 214 1 120 47 140 166 167 180 186 196 202 204
318 314 313 314 314 317 324 317 304 289 279 278 282 288 270 264 244 238 229 243 260 261 263 285 298 267 116 79 46 358 233 230 237 306 139 107 148 166 180 184 191 198 201 210 214
320 317 313 315 315 323 348 331 351 335 347 279 261 291 258 308 268 230 235 245 253 270 289 239 135 77 30 76 224 196 192 266 248 216 150 116 162 170 187 196 205 204 212 210 213
324 321 316 314 317 330 16 38 4 308 322 260 264 256 281 274 304 202 235 240 232 260 180 20 119 172 222 199 219 196 172 226 271 169 147 188 156 177 193 209 216 210 211 212 221
328 322 320 315 309 327 24 55 24 314 295 282 264 259 259 275 298 259 191 190 161 193 133 11 234 218 158 203 233 210 190 244 308 109 141 177 206 205 194 210 213 216 218 222 220
332 327 322 321 303 297 44 14 13 352 278 291 262 255 249 244 228 253 203 176 146 151 180 189 216 105 187 126 277 262 231 211 197 137 41 110 282 219 234 230 226 224 230 229 222
334 328 325 331 300 314 122 2 337 337 41 281 277 288 194 196 251 241 249 244 84 196 175 242 222 232 275 269 141 285 215 252 181 152 221 155 267 265 206 233 230 227 223 232 224
332 330 325 325 298 332 276 310 313 317 23 326 281 310 187 181 147 213 227 208 175 188 109 242 255 196 170 228 152 250 232 252 197 151 109 195 67 272 331 251 223 222 226 222 220
330 331 322 320 321 249 283 302 335 39 306 340 1 342 129 239 268 108 116 201 235 170 17 244 288 179 216 241 178 265 292 13 37 120 115 228 179 280 195 228 216 226 223 223 217
337 337 332 325 162 78 305 350 42 111 330 342 320 343 60 346 346 178 274 72 163 125 307 310 256 250 215 300 93 114 62 312 5 93 207 224 139 237 258 227 202 215 219 217 221
357 17 28 105 180 123 6 53 69 273 283 296 311 331 76 8 355 316 148 245 189 108 107 187 300 182 195 183 212 202 162 160 229 220 246 156 228 248 191 254 226 238 226 216 220
37 46 45 70 130 100 59 66 211 220 276 325 335 50 353 342 352 8 260 210 220 172 178 166 266 288 183 163 119 282 207 202 106 10 80 242 293 307 228 245 214 200 203 216 223
34 57 50 69 96 57 73 232 239 224 335 323 345 51 14 331 10 7 356 228 327 196 262 227 254 215 257 150 239 159 178 319 0 180 235 280 272 237 271 222 207 199 216 230 228
25 72 51 71 4 16 107 235 267 275 239 229 300 54 18 1 284 298 0 319 10 320 189 154 139 275 47 177 226 292 222 79 132 137 178 209 257 217 225 233 194 205 207 207 213
40 49 179 155 24 31 288 219 306 296 2 249 209 151 136 39 351 0 21 278 348 321 331 226 173 211 223 238 203 167 209 158 134 259 187 172 268 230 222 244 174 212 201 211 217
53 60 175 240 54 333 302 290 269 306 336 344 4 40 340 35 34 37 347 305 347 353 350 306 291 333 321 352 345 195 191 159 136 78 196 159 256 315 295 190 191 196 203 199 208
33 34 53 197 75 29 327 317 334 336 36 46 44 61 42 29 350 314 327 316 328 332 356 143 131 174 214 213 177 161 211 172 125 113 198 213 245 255 257 218 193 193 214 205 194
37 47 30 314 342 349 314 344 339 3 356 19 27 74 36 9 339 333 294 313 318 5 356 52 43 340 295 264 272 184 206 168 180 191 166 260 201 240 240 196 207 196 184 186 183
53 22 355 310 309 334 358 9 13 326 9 337 16 323 167 159 245 277 280 267 238 327 351 350 308 9 299 339 240 269 226 215 189 164 247 255 265 257 316 159 174 191 185 186 191
43 15 331 331 343 39 320 320 330 339 306 342 316 333 333 299 310 271 267 261 242 258 283 127 38 30 284 329 256 287 228 184 99 40 333 19 281 315 272 201 195 196 195 195 196